Borgobello y Posco lideraron las series de la Clase 2

Borgobello y Posco lideraron las series de la Clase 2

 Desde las 12,30 horas,se largará la última  final del año. Nicolás Posco estará en la primera posición, seguido de Borgobello, Tedeschi,  Iansa y Franetovich.

 

SEGUNDA SERIE C2
Puesto Nro Piloto Marca Vtas Tiempo Dif.
1 13 Joel BORGOBELLO VW TREND 6 9:51.735  
2 11 Gaston IANSA FIESTA KINETIC 6 9:54.914 3.179
3 25 Sebastian PEREZ CHEVROLET ONIX 6 9:56.591 4.856
4 5 Gaston GRASSO TOYOTA ETIOS 6 9:56.991 5.256
5 6 Miguel CIAURRO VW TREND 6 9:58.103 6.368
6 73 Lucas BAGNERA RENAULT CLIO 6 9:58.564 6.829
7 150 Damian MARKEL TOYOTA ETIOS 6 9:58.744 7.009
8 100 Ian REUTEMANN FIESTA KINETIC 6 9:58.934 7.199
9 69 Agustin HERRERA RENAULT CLIO 6 9:59.577 7.842
10 35 Diego LEANEZ TOYOTA ETIOS 6 10:02.204 10.469
11 141 Juan Pablo ROTONDO FIESTA KINETIC 6 10:02.682 10.947
12 24 Juan I. CANELA FIESTA KINETIC 6 10:02.914 11.179
13 112 Damian ROMERO TOYOTA ETIOS 6 10:03.771 12.036
14 66 Martin ALESSI RENAULT CLIO 6 10:04.948 13.213
15 99 Luciano GONZALEZ RENAULT CLIO 6 10:09.023 17.288
16 159 Agustin BONOMO DS3 6 10:09.372 17.637
17 199 Emiliano GIACOPONI CHEVROLET CORSA 5 8:23.314 1 Vuelta
18 36 Alejo BORGIANI VW TREND 4 6:34.625 2 Vueltas

Auto Nro. 66 Apercibido por maniobra peligrosa al Auto Nro. 69

 

 

PRIMERA SERIE C2
Puesto Nro Piloto Marca Vtas Tiempo Dif.
1 1 Nicolas POSCO FIESTA KINETIC 6 9:49.842  
2 72 Lucas TEDESCHI TOYOTA ETIOS 6 9:50.960 1.118
3 14 Ever FRANETOVICH FIAT PALIO 6 9:54.213 4.371
4 18 Marcos FERNANDEZ NISSAN MARCH 6 9:54.490 4.648
5 120 Geronimo NUNEZ NISSAN MARCH 6 10:00.122 10.280
6 65 Fernando GOMEZ FREDES NISSAN MARCH 6 10:00.920 11.078
7 31 Facundo LEANEZ TOYOTA ETIOS 6 10:02.004 12.162
8 63 Renzo TESTA FIAT PALIO 6 10:02.670 12.828
9 75 Jose Luis ARRATE RENAULT CLIO 6 10:03.363 13.521
10 47 Ignacio PROCACITTO VW TREND 6 10:04.086 14.244
11 21 Gabriel SCORDIA FIESTA KINETIC 6 10:04.875 15.033
12 54 Facundo ROTONDO FIESTA KINETIC 6 10:05.078 15.236
13 79 Andres CALDERON VW TREND 6 10:05.971 16.129
14 78 Alejandro WEIMANN TOYOTA ETIOS 6 10:08.660 18.818
15 61 Sergio SPEDALIERI RENAULT CLIO 6 10:26.931 37.089
16 52 Gustavo ACUNA VW TREND 6 10:33.782 43.940
  7 Maximiliano BESTANI NISSAN MARCH 1 1:42.733 5 Vueltas
  91 Mauro SALVI TOYOTA ETIOS 1 1:53.955 5 Vueltas

Auto Nro. 32 excluido parcialmente por maniobra peligrosa a los Autos Nro. 7 y 91.

 

Edición de página web y Fotos: Silvina Barrios